TimePDT,TemperatureF,Dew PointF,Humidity,Sea Level PressureIn,VisibilityMPH,Wind Direction,Wind SpeedMPH,Gust SpeedMPH,PrecipitationIn,Events,Conditions,WindDirDegrees,DateUTC
1:53 AM,48.0,43.0,83,29.74,10.0,NNE,4.6,-,N/A,,Clear,30,2013-05-07 08:53:00
2:53 AM,45.0,41.0,86,29.75,10.0,Calm,Calm,-,N/A,,Clear,0,2013-05-07 09:53:00
3:53 AM,46.0,41.0,83,29.75,10.0,North,3.5,-,N/A,,Clear,10,2013-05-07 10:53:00
4:53 AM,44.1,41.0,89,29.77,10.0,North,3.5,-,N/A,,Clear,360,2013-05-07 11:53:00
5:53 AM,45.0,41.0,86,29.78,10.0,East,4.6,-,N/A,,Clear,80,2013-05-07 12:53:00
6:53 AM,48.9,44.1,83,29.80,10.0,North,3.5,-,N/A,,Clear,360,2013-05-07 13:53:00
7:53 AM,61.0,44.1,54,29.81,10.0,Calm,Calm,-,N/A,,Clear,0,2013-05-07 14:53:00
8:53 AM,68.0,43.0,40,29.81,10.0,Calm,Calm,-,N/A,,Clear,0,2013-05-07 15:53:00
9:53 AM,75.0,46.0,36,29.81,10.0,Calm,Calm,-,N/A,,Clear,0,2013-05-07 16:53:00
10:53 AM,79.0,42.1,27,29.82,10.0,Variable,4.6,-,N/A,,Clear,0,2013-05-07 17:53:00
11:53 AM,82.0,43.0,25,29.81,10.0,North,4.6,-,N/A,,Clear,360,2013-05-07 18:53:00
12:53 PM,84.9,39.0,20,29.79,10.0,Calm,Calm,-,N/A,,Clear,0,2013-05-07 19:53:00
1:53 PM,86.0,39.9,20,29.78,10.0,Calm,Calm,-,N/A,,Clear,0,2013-05-07 20:53:00
2:53 PM,88.0,39.9,18,29.77,10.0,NW,3.5,-,N/A,,Clear,320,2013-05-07 21:53:00
3:53 PM,90.0,37.0,15,29.75,10.0,NNW,5.8,-,N/A,,Clear,330,2013-05-07 22:53:00
4:53 PM,90.0,34.0,14,29.74,10.0,North,5.8,-,N/A,,Clear,360,2013-05-07 23:53:00
5:53 PM,90.0,34.0,14,29.73,10.0,NNW,4.6,-,N/A,,Clear,340,2013-05-08 00:53:00
6:53 PM,87.1,42.1,21,29.74,10.0,North,5.8,-,N/A,,Clear,350,2013-05-08 01:53:00
7:53 PM,79.0,44.1,29,29.74,10.0,North,4.6,-,N/A,,Clear,10,2013-05-08 02:53:00
8:53 PM,70.0,44.1,39,29.76,10.0,Calm,Calm,-,N/A,,Clear,0,2013-05-08 03:53:00
9:53 PM,62.1,50.0,65,29.77,10.0,WNW,3.5,-,N/A,,Clear,300,2013-05-08 04:53:00
10:53 PM,57.9,48.9,72,29.79,10.0,NNE,3.5,-,N/A,,Clear,30,2013-05-08 05:53:00
11:53 PM,57.0,48.0,72,29.81,10.0,Calm,Calm,-,N/A,,Clear,0,2013-05-08 06:53:00